Location: Village de las Huertas
(35.3014°N, 106.4095°W)
Time: 09:08:03
(UTC+00:00)

Cosmos 1954 Rocket - Pass Details

Date: 29 October 2020
Orbit: 752 x 782 km, 74.1° (Epoch: 04 December)

Event Time Altitude Azimuth Distance (km) Brightness Sun altitude
Rises 12:54:03 0° 198° (SSW) 3,195 7.1 -6.9°
Reaches altitude 10° 12:56:24 10° 200° (SSW) 2,271 6.4 -6.5°
Maximum altitude 13:01:33 81° 287° (WNW) 766 4.0 -5.4°
Drops below altitude 10° 13:06:43 10° 15° (NNE) 2,278 6.5 -4.4°
Sets 13:09:05 0° 17° (NNE) 3,207 7.3 -3.9°
